Location: Andrest
(43.3200°N, 0.0641°E)
Time: 15:25:42
(UTC+00:00)

SKYMED 2 - Pass Details

Date: 01 December 2020
Orbit: 621 x 623 km, 97.9° (Epoch: 23 January)

Event Time Altitude Azimuth Distance (km) Brightness Sun altitude
Exits shadow 18:15:21 15° 11° (N) 1,698 5.6 -19.5°
Maximum altitude 18:18:57 83° 285° (WNW) 633 3.6 -20.1°
Drops below altitude 10° 18:23:17 10° 197° (SSW) 1,986 6.5 -20.9°
Sets 18:25:28 0° 197° (SSW) 2,887 7.4 -21.3°
